Regional Weather Roundup
Issued by NWS

Home | Current Version | Previous Version | Text Only | Print | Product List | Glossary On
Versions: 1 2 3 4 5 6 7 8 9 10 11 12 13 14 15 16 17 18 19 20 21 22 23 24 25 26 27 28 29 30 31 32 33 34 35 36 37 38 39 40 41 42 43 44 45 46 47 48 49 50
000
ASUS42 KTBW 281416
RWRFL
FLORIDA REGIONAL WEATHER ROUNDUP
NATIONAL WEATHER SERVICE TAMPA BAY RUSKIN FL
1000 AM EDT TUE MAR 28 2017

NOTE: "FAIR" INDICATES FEW OR NO CLOUDS BELOW 12,000 FEET WITH NO
SIGNIFICANT WEATHER AND/OR OBSTRUCTIONS TO VISIBILITY.

FLZ001>010-012>015-112-114-115-281500-
PANHANDLE FLORIDA

CITY           SKY/WX    TMP DP  RH WIND       PRES   REMARKS
PENSACOLA      PTSUNNY   75  67  76 SW8       30.04R
PENSACOLA NAS  PTSUNNY   73  69  87 SW10      30.04R
MILTON NAS     PTSUNNY   72  68  87 SW9       30.05
CRESTVIEW      PTSUNNY   73  67  81 VRB6      30.06S
DUKE FIELD     MOSUNNY   72  67  82 SW8       30.04S
VALPARAISO     PTSUNNY   73  68  84 SW8       30.05R
MARY ESTHER    PTSUNNY   74  67  79 SW6       30.04
PANAMA CITY    FAIR      73  68  84 SW5       30.05R
TYNDALL AFB    MOSUNNY   72  68  88 SW5       30.07R
APALACHICOLA   MOSUNNY   70  70 100 S5        30.07R

STATION/POSITION SKY/WX   TEMP    WIND        PRES    WAVE   SWELL
                          AIR SEA DIR/SP/G            HT/PER HT/PER
                          (F)     (DEG/KT/KT) (MB)    (FT/S) (FT/S)
30.1N   87.6W              70 70  160/  4/  4 1017.2R   3/ 6   2/ 6
29.2N   88.2W              73 73  170/  6/  8 1017.3R   3/ 5   2/ 5
28.8N   86.0W              72 72              1017.4    2/ 6   2/ 6
PANAMA CITY BEAC           70 71  140/  5/  5 1018.1R
TOWER C                    69     150/  6/  6 1018.8R

$$
FLZ011-016>038-118-127-128-134-139-239-281500-
NORTH FLORIDA

CITY           SKY/WX    TMP DP  RH WIND       PRES   REMARKS
MARIANNA       PTSUNNY   74  67  78 SW6       30.05R
TALLAHASSEE    CLOUDY    63  63 100 CALM      30.08R FOG
PERRY          SUNNY     70  65  85 CALM      30.08S
CROSS CITY     SUNNY     72  63  73 S3        30.08R
LAKE CITY      FAIR      70  61  73 W6        30.08R
GAINESVILLE    SUNNY     73  60  63 SW7       30.07S
WILLISTON      SUNNY     73  63  68 S5        30.08S
PALATKA        FAIR      73  64  73 W8        30.08S
MAYPORT NAS    MOSUNNY   73  62  68 SW8       30.06R
JACKSONVILLE   MOSUNNY   72  61  68 SW12      30.06R
FERNANDINA BEA PTSUNNY   75  63  64 W9        30.05S
ST AUGUSTINE   SUNNY     73  62  68 SW12      30.07S

STATION/POSITION SKY/WX   TEMP    WIND        PRES    WAVE   SWELL
                          AIR SEA DIR/SP/G            HT/PER HT/PER
                          (F)     (DEG/KT/KT) (MB)    (FT/S) (FT/S)
SHELL POINT      NOT AVBL
KEATON BEACH               70     190/  4/  5 1018.2R
CEDAR KEY                  71     170/  7/  8 1018.4R
FERNANDINA                 71 68              1018.7R
30.7N   81.3W                 66                N/A     4/10   2/11
MAYPORT                    70 67  240/  6/  8 1018.3R
31.4N   80.9W              65 63  210/  8/  8 1017.1R   4/10   3/10
ST AUGUSTINE               72 67  240/ 10/ 11 1018.9F

$$
FLZ040-043>046-052-053-057-058-063-144-281500-
INTERIOR CENTRAL FLORIDA

CITY           SKY/WX    TMP DP  RH WIND       PRES   REMARKS
OCALA          SUNNY     72  61  68 SW9       30.08R
THE VILLAGES     N/A     73  64  73 CALM      29.99R
LEESBURG       SUNNY     72  63  73 S6        30.09R
SANFORD        SUNNY     73  62  68 SW7       30.09R
ORLANDO EXEC   SUNNY     73  63  70 SW5       30.09R
ORLANDO INTL   MOSUNNY   73  62  68 S5        30.09R
KISSIMMEE      SUNNY     73  63  70 SW5       30.10R
WINTER HAVEN   SUNNY     71  61  70 S5        30.10R
LAKELAND       SUNNY     72  63  73 CALM      30.10R
BARTOW         SUNNY     70  61  73 VRB3      30.10R
OKEECHOBEE     SUNNY    N/A N/A N/A NW5       30.09S

$$
FLZ041-047-054-059-064-141-147-281500-
EAST CENTRAL FLORIDA

CITY           SKY/WX    TMP DP  RH WIND       PRES   REMARKS
ORMOND BEACH   SUNNY     72  64  78 SW7       30.08S
DAYTONA BEACH  MOSUNNY   71  65  81 SW5       30.08S
DELAND         SUNNY     72  63  73 SW7       30.08S
NEW SMYRNA BEA SUNNY     73  63  68 W3        30.09R
JFK SPACE CTR  SUNNY     73  65  75 W7        30.07R
TITUSVILLE     SUNNY     70  66  88 VRB6      30.09R SMOKE
CAPE CANAVERAL SUNNY     76  63  62 W6        30.07R
PATRICK AFB    SUNNY     72  65  77 W5        30.08R
MELBOURNE      SUNNY     74  65  73 W6        30.08R
VERO BEACH     MOSUNNY   72  64  76 W6        30.08R
FT PIERCE      MOSUNNY   75  65  70 W5        30.08R
STUART         MOSUNNY   77  64  65 N5        30.08R

STATION/POSITION SKY/WX   TEMP    WIND        PRES    WAVE   SWELL
                          AIR SEA DIR/SP/G            HT/PER HT/PER
                          (F)     (DEG/KT/KT) (MB)    (FT/S) (FT/S)
TRIDENT PIER               71 72  290/  4/  5 1019.7R
28.4N   80.5W                 72                N/A     2/11   2/11
27.5N   80.2W                 74                N/A     4/10   2/11

$$
FLZ050-056-061-142-242-148-248-149-249-151-251-155-255-
160-260-281500-
WEST CENTRAL FLORIDA

CITY           SKY/WX    TMP DP  RH WIND       PRES   REMARKS
CRYSTAL RIVER  FAIR      72  61  68 S3        30.08S
INVERNESS      FAIR      73  63  68 S7        30.09S
BROOKSVILLE    SUNNY     72  62  71 S7        30.09R
CLEARWATER AIR FAIR      72  63  73 SE5       30.08R
ST PETE CLEARW SUNNY     74  62  66 SE7       30.08R
TAMPA INTL     SUNNY     74  61  63 SE5       30.09R
TAMPA EXEC     SUNNY     73  63  68 CALM      30.09S
PLANT CITY     SUNNY     73  64  73 CALM      30.11S
MACDILL AFB    SUNNY     74  64  72 E3        30.08R
PETER O KNIGHT CLOUDY    73  64  73 S3        30.09S
ST PETERSBURG  SUNNY     70  62  76 E5        30.07R
SARASOTA       SUNNY     75  59  57 SE9       30.06R
VENICE         FAIR      75  63  64 CALM      30.08S

STATION/POSITION SKY/WX   TEMP    WIND        PRES    WAVE   SWELL
                          AIR SEA DIR/SP/G            HT/PER HT/PER
                          (F)     (DEG/KT/KT) (MB)    (FT/S) (FT/S)
27.3N   84.2W                 71                N/A     2/ 6
CLEARWATER BEACH           72 71  110/  5/  7 1018.7R
MIDDLE TAMPA BAY           71     150/  3/  5 1018.8R
VENICE                     72 71  160/  6/  7 1018.2R

$$
FLZ066-069-070-075>078-162-262-165-265-281500-
SOUTHWEST FLORIDA AND KEYS

CITY           SKY/WX    TMP DP  RH WIND       PRES   REMARKS
PUNTA GORDA    SUNNY     74  60  61 SE5       30.09S
FT MYERS       SUNNY     75  61  61 SE5       30.07S
SOUTHWEST INTL SUNNY     74  59  59 CALM      30.08R
NAPLES         SUNNY     75  61  61 E3        30.07R
IMMOKALEE      FAIR      75  61  60 VRB5      30.07R
MARATHON       SUNNY     78  69  73 NE8       30.05R
KEY WEST NAS   MOSUNNY   77  66  68 E8        30.05R
KEY WEST INTL  SUNNY     78  67  68 VRB7      30.05R

STATION/POSITION SKY/WX   TEMP    WIND        PRES    WAVE   SWELL
                          AIR SEA DIR/SP/G            HT/PER HT/PER
                          (F)     (DEG/KT/KT) (MB)    (FT/S) (FT/S)
NAPLES           NOT AVBL
26.0N   85.6W              76 78  110/ 12/ 14 1017.7R   2/ 6   2/ 6
DRY TORTUGAS               74      80/ 12/ 13 1017.6R
SAND KEY                   75      80/ 12/ 13 1017.9R
LONG KEY                   73 75   50/  8/  9 1017.4R
MOLASSES REEF              74 78   40/  4/  5 1018.0R

$$
FLZ067-068-071>074-168-172>174-281500-
SOUTHEAST FLORIDA

CITY           SKY/WX    TMP DP  RH WIND       PRES   REMARKS
W PALM BEACH   MOSUNNY   74  63  68 VRB3      30.07R
BOCA RATON     MOSUNNY   73  63  68 NW6       30.06R
FT LAUDER-EXEC MOSUNNY   77  62  59 W7        30.06R
FT LAUDERDALE  SUNNY     76  63  64 NW6       30.05R
POMPANO BEACH  MOSUNNY   77  63  61 NW8       30.06R
PEMBROKE PINES MOSUNNY   77  62  59 NW6       30.08R
OPA LOCKA      SUNNY     77  63  61 NW5       30.07R
MIAMI          MOSUNNY   74  62  66 CALM      30.06R
WEST KENDALL   SUNNY     77  62  59 N5        30.06R
HOMESTEAD      SUNNY     75  65  70 N5        30.05R

STATION/POSITION SKY/WX   TEMP    WIND        PRES    WAVE   SWELL
                          AIR SEA DIR/SP/G            HT/PER HT/PER
                          (F)     (DEG/KT/KT) (MB)    (FT/S) (FT/S)
PORT EVERGLADES            74     320/  5/  7 1017.8R
VIRGINIA KEY               75     320/  3/  5 1018.1R
LAKE WORTH                        350/  4/  4   N/A
FOWEY ROCKS                74 76  340/  8/  9 1018.5R
SETTLEMENT POINT           72      80/  5/  6 1018.3R

$$




USA.gov is the U.S. government's official web portal to all federal, state and local government web resources and services.